386  
ASUS46 KPQR 161210  
RWROR  
 
OREGON REGIONAL WEATHER ROUNDUP  
NATIONAL WEATHER SERVICE PORTLAND OR  
500 AM PDT TUE JUL 16 2019  
 
NOTE: "FAIR" INDICATES FEW OR NO CLOUDS BELOW 12,000 FEET WITH  
NO SIGNIFICANT WEATHER AND/OR S TO VISIBILITY
.  
 
ORZ001>013-161300-  
NORTHWEST OREGON  
 
 
CITY SKY/WX TMP DP RH WIND PRES REMARKS
 
ASTORIA CLOUDY 62 59 90 CALM 30.02S  
TILLAMOOK CLOUDY 61 59 94 CALM 30.04S  
NEWPORT RAIN 61 61 100 SW5 30.07S  
PORTLAND CLOUDY 65 59 81 NW6 30.02R  
6HR MIN TEMP: 65; 6HR MAX TEMP: 69; 6HR PCP: TRACE;  
 
VANCOUVER WA CLOUDY 64 59 83 NW3 30.01S  
6HR MIN TEMP: 64; 6HR MAX TEMP: 68;  
 
SCAPPOOSE MOCLDY 63 58 83 CALM 30.00S  
6HR MIN TEMP: 63; 6HR MAX TEMP: 66;  
 
HILLSBORO CLOUDY 63 59 87 W3 30.02R  
6HR MIN TEMP: 63; 6HR MAX TEMP: 68;  
 
AURORA MOCLDY 62 57 83 SW5 30.03S  
6HR MIN TEMP: 62; 6HR MAX TEMP: 68;  
 
MCMINNVILLE CLOUDY 59 56 89 W5 30.02S  
6HR MIN TEMP: 58; 6HR MAX TEMP: 64;  
 
SALEM CLOUDY 61 56 83 W3 30.02S  
6HR MIN TEMP: 61; 6HR MAX TEMP: 66;  
 
CORVALLIS PTCLDY 57 55 93 CALM 30.05R  
EUGENE CLOUDY 63 56 78 W7 30.05R  
6HR MIN TEMP: 62; 6HR MAX TEMP: 66;  
 

 
 
ORZ021-028-161300-  
SOUTHWEST OREGON  
 
 
CITY SKY/WX TMP DP RH WIND PRES REMARKS
 
NORTH BEND CLOUDY 61 61 100 NW6 30.07R  
6HR MIN TEMP: 61; 6HR MAX TEMP: 63; 6HR PCP: 0.02;  
 
BROOKINGS CLOUDY 60 59 96 CALM 30.04S  
ROSEBURG CLOUDY 67 58 72 N7 30.03R  
6HR MIN TEMP: 67; 6HR MAX TEMP: 71;  
 
SEXTON SUMMIT FOG 54 53 97 VRB5 30.08S VSB 1/4  
6HR MIN TEMP: 53; 6HR MAX TEMP: 57;  
 
GRANTS PASS CLOUDY 63 55 77 CALM 30.04F  
MEDFORD PTCLDY 67 55 65 N3 30.00S  
6HR MIN TEMP: 67; 6HR MAX TEMP: 75;  
 

 
 
ORZ014>016-041-161300-  
COLUMBIA GORGE  
 
 
CITY SKY/WX TMP DP RH WIND PRES REMARKS
 
TROUTDALE CLOUDY 66 60 81 W5 30.01S  
6HR MIN TEMP: 66; 6HR MAX TEMP: 70;  
 
HOOD RIVER MOCLDY 59 54 82 S5 30.00R  
THE DALLES MOCLDY 62 56 80 SW5 29.97S  
6HR MIN TEMP: 62; 6HR MAX TEMP: 70;  
 

 
 
ORZ029>031-041-044-049-050-061>064-502-503-505>511-161300-  
EASTERN OREGON  
 
 
CITY SKY/WX TMP DP RH WIND PRES REMARKS
 
MADRAS MOCLDY 50 46 87 SE5 30.06S  
REDMOND CLEAR 48 44 86 S5 30.06R  
6HR MIN TEMP: 48; 6HR MAX TEMP: 64;  
 
BEND CLEAR 52 48 87 SW5 30.07R  
PRINEVILLE CLEAR 46 45 93 CALM 30.06S  
KLAMATH FALLS MOCLDY 52 47 83 E3 30.07S  
6HR MIN TEMP: 50; 6HR MAX TEMP: 61;  
 
LAKEVIEW CLOUDY 57 47 69 N13G18 30.09S  
HERMISTON CLOUDY 61 53 75 NE3 29.97R  
6HR MIN TEMP: 61; 6HR MAX TEMP: 71;  
 
PENDLETON CLOUDY 64 51 62 SW6 30.00R  
6HR MIN TEMP: 63; 6HR MAX TEMP: 69;  
 
JOHN DAY MOCLDY 58 51 77 CALM 30.07S  
MEACHAM MOCLDY 47 44 90 CALM 30.07S  
6HR MIN TEMP: 47; 6HR MAX TEMP: 53;  
 
LA GRANDE MOCLDY 60 49 66 NW9 30.04F  
6HR MIN TEMP: 60; 6HR MAX TEMP: 63;  
 
BAKER CITY MOCLDY 52 48 86 CALM 30.06S  
6HR MIN TEMP: 51; 6HR MAX TEMP: 59;  
 
BURNS MOCLDY 53 48 83 NW7 30.08R  
6HR MIN TEMP: 53; 6HR MAX TEMP: 62;  
 
ROME N/A 55 45 68 E3 30.05R  
6HR MIN TEMP: 53; 6HR MAX TEMP: 73;  
 
ONTARIO PTCLDY 67 52 58 W6 29.99R  
6HR MIN TEMP: 66; 6HR MAX TEMP: 72;  
 

 
 
 
CLICK HERE TO GO TO PREVIOUS BULLETINS.

The Nexlab OR Page Main Text Page